| time (UTC) | temp C | wind direction | speed KPH | gust KPH | rain 1hr cm | rain 24hr cm | rain mn cm | humidity % | barometer mb |
| 20260906213349 | 28 | 169 | 9.7 | 24.1 | 0.00 | 0.00 | 0.00 | 33 | 1002.5 |
| 20260906213141 | 28 | 151 | 8.0 | 22.5 | 0.00 | 0.00 | 0.00 | 35 | 1002.5 |
| 20260906212934 | 28 | 190 | 8.0 | 22.5 | 0.00 | 0.00 | 0.00 | 34 | 1002.4 |
| 20260906212724 | 28 | 252 | 8.0 | 22.5 | 0.00 | 0.00 | 0.00 | 34 | 1002.5 |
| 20260906212515 | 28 | 175 | 8.0 | 22.5 | 0.00 | 0.00 | 0.00 | 35 | 1002.6 |
| 20260906212312 | 28 | 119 | 8.0 | 22.5 | 0.00 | 0.00 | 0.00 | 36 | 1002.6 |
| 20260906212106 | 28 | 166 | 9.7 | 22.5 | 0.00 | 0.00 | 0.00 | 36 | 1002.7 |
| 20260906211907 | 28 | 189 | 8.0 | 16.1 | 0.00 | 0.00 | 0.00 | 36 | 1002.7 |
| 20260906211707 | 28 | 92 | 8.0 | 22.5 | 0.00 | 0.00 | 0.00 | 35 | 1002.7 |
| 20260906211506 | 28 | 106 | 8.0 | 22.5 | 0.00 | 0.00 | 0.00 | 35 | 1002.7 |
| 20260906210931 | 28 | 153 | 8.0 | 22.5 | 0.00 | 0.00 | 0.00 | 36 | 1002.7 |
| 20260906210724 | 28 | 90 | 8.0 | 22.5 | 0.00 | 0.00 | 0.00 | 36 | 1002.7 |
| 20260906210514 | 28 | 104 | 8.0 | 22.5 | 0.00 | 0.00 | 0.00 | 37 | 1002.8 |
| 20260906210304 | 28 | 76 | 8.0 | 22.5 | 0.00 | 0.00 | 0.00 | 37 | 1002.8 |
| 20260906205728 | 28 | 115 | 8.0 | 20.9 | 0.00 | 0.00 | 0.00 | 37 | 1002.8 |
| 20260906205522 | 28 | 169 | 8.0 | 20.9 | 0.00 | 0.00 | 0.00 | 37 | 1002.9 |
| 20260906205319 | 28 | 165 | 6.4 | 22.5 | 0.00 | 0.00 | 0.00 | 38 | 1002.9 |
| 20260906205108 | 28 | 163 | 6.4 | 22.5 | 0.00 | 0.00 | 0.00 | 37 | 1003.0 |
| 20260906204858 | 28 | 165 | 6.4 | 22.5 | 0.00 | 0.00 | 0.00 | 37 | 1003.1 |
| 20260906204327 | 28 | 105 | 8.0 | 22.5 | 0.00 | 0.00 | 0.00 | 38 | 1003.2 |
| 20260906204124 | 28 | 170 | 8.0 | 22.5 | 0.00 | 0.00 | 0.00 | 37 | 1003.2 |
| 20260906203914 | 28 | 160 | 8.0 | 22.5 | 0.00 | 0.00 | 0.00 | 38 | 1003.4 |
| 20260906203346 | 28 | 186 | 8.0 | 20.9 | 0.00 | 0.00 | 0.00 | 37 | 1003.2 |
| 20260906202821 | 28 | 121 | 8.0 | 19.3 | 0.00 | 0.00 | 0.00 | 37 | 1003.3 |
| 20260906202618 | 28 | 155 | 8.0 | 19.3 | 0.00 | 0.00 | 0.00 | 37 | 1003.4 |
| 20260906202418 | 28 | 201 | 6.4 | 17.7 | 0.00 | 0.00 | 0.00 | 37 | 1003.3 |
| 20260906202218 | 28 | 169 | 6.4 | 17.7 | 0.00 | 0.00 | 0.00 | 37 | 1003.3 |
| 20260906202014 | 28 | 141 | 6.4 | 17.7 | 0.00 | 0.00 | 0.00 | 36 | 1003.3 |
| 20260906201811 | 28 | 128 | 6.4 | 17.7 | 0.00 | 0.00 | 0.00 | 36 | 1003.4 |
| 20260906201603 | 28 | 222 | 6.4 | 17.7 | 0.00 | 0.00 | 0.00 | 35 | 1003.3 |
| 20260906201354 | 28 | 13 | 6.4 | 17.7 | 0.00 | 0.00 | 0.00 | 36 | 1003.4 |
| 20260906200512 | 28 | 85 | 4.8 | 24.1 | 0.00 | 0.00 | 0.00 | 38 | 1003.4 |
| 20260906200309 | 27 | 92 | 6.4 | 24.1 | 0.00 | 0.00 | 0.00 | 38 | 1003.4 |
| 20260906195745 | 28 | 205 | 9.7 | 24.1 | 0.00 | 0.00 | 0.00 | 37 | 1003.5 |
| 20260906195539 | 28 | 113 | 9.7 | 24.1 | 0.00 | 0.00 | 0.00 | 37 | 1003.5 |
| 20260906195333 | 28 | 75 | 9.7 | 24.1 | 0.00 | 0.00 | 0.00 | 37 | 1003.5 |
| 20260906195125 | 28 | 128 | 8.0 | 24.1 | 0.00 | 0.00 | 0.00 | 38 | 1003.5 |
| 20260906194605 | 28 | 160 | 8.0 | 19.3 | 0.00 | 0.00 | 0.00 | 35 | 1003.6 |
| 20260906194405 | 28 | 161 | 8.0 | 24.1 | 0.00 | 0.00 | 0.00 | 35 | 1003.6 |
| 20260906194201 | 28 | 202 | 8.0 | 24.1 | 0.00 | 0.00 | 0.00 | 34 | 1003.7 |
| 20260906193950 | 28 | 194 | 8.0 | 24.1 | 0.00 | 0.00 | 0.00 | 34 | 1003.6 |
| 20260906193751 | 28 | 193 | 8.0 | 24.1 | 0.00 | 0.00 | 0.00 | 34 | 1003.7 |
| 20260906193548 | 28 | 214 | 6.4 | 24.1 | 0.00 | 0.00 | 0.00 | 36 | 1003.6 |
| 20260906193343 | 28 | 150 | 8.0 | 24.1 | 0.00 | 0.00 | 0.00 | 35 | 1003.7 |
| 20260906193136 | 28 | 50 | 6.4 | 24.1 | 0.00 | 0.00 | 0.00 | 36 | 1003.6 |
| 20260906192929 | 28 | 134 | 6.4 | 24.1 | 0.00 | 0.00 | 0.00 | 35 | 1003.8 |
| 20260906192720 | 28 | 155 | 8.0 | 24.1 | 0.00 | 0.00 | 0.00 | 34 | 1003.8 |
| 20260906192512 | 28 | 128 | 8.0 | 24.1 | 0.00 | 0.00 | 0.00 | 34 | 1003.9 |
| 20260906192311 | 28 | 107 | 8.0 | 19.3 | 0.00 | 0.00 | 0.00 | 34 | 1003.9 |
| 20260906192111 | 28 | 121 | 8.0 | 19.3 | 0.00 | 0.00 | 0.00 | 33 | 1003.9 |
| 20260906191905 | 28 | 136 | 8.0 | 19.3 | 0.00 | 0.00 | 0.00 | 33 | 1003.9 |
| 20260906191658 | 28 | 134 | 6.4 | 19.3 | 0.00 | 0.00 | 0.00 | 34 | 1004.0 |
| 20260906191456 | 28 | 69 | 6.4 | 19.3 | 0.00 | 0.00 | 0.00 | 35 | 1004.0 |
| 20260906191249 | 28 | 138 | 6.4 | 19.3 | 0.00 | 0.00 | 0.00 | 36 | 1004.0 |
| 20260906191050 | 28 | 86 | 6.4 | 19.3 | 0.00 | 0.00 | 0.00 | 35 | 1004.1 |
| 20260906190842 | 28 | 185 | 6.4 | 19.3 | 0.00 | 0.00 | 0.00 | 36 | 1004.1 |
| 20260906190643 | 28 | 186 | 6.4 | 19.3 | 0.00 | 0.00 | 0.00 | 34 | 1004.2 |
| 20260906190118 | 27 | 163 | 6.4 | 17.7 | 0.00 | 0.00 | 0.00 | 35 | 1004.2 |
| 20260906185912 | 27 | 171 | 6.4 | 17.7 | 0.00 | 0.00 | 0.00 | 34 | 1004.4 |
| 20260906185345 | 27 | 159 | 6.4 | 12.9 | 0.00 | 0.00 | 0.00 | 35 | 1004.5 |
| 20260906185139 | 27 | 69 | 6.4 | 17.7 | 0.00 | 0.00 | 0.00 | 36 | 1004.5 |
| 20260906184937 | 27 | 150 | 8.0 | 17.7 | 0.00 | 0.00 | 0.00 | 35 | 1004.6 |
| 20260906184729 | 27 | 78 | 8.0 | 17.7 | 0.00 | 0.00 | 0.00 | 35 | 1004.5 |
| 20260906184523 | 27 | 56 | 8.0 | 17.7 | 0.00 | 0.00 | 0.00 | 35 | 1004.6 |
| 20260906184313 | 27 | 212 | 8.0 | 17.7 | 0.00 | 0.00 | 0.00 | 35 | 1004.7 |
| 20260906184108 | 27 | 102 | 8.0 | 17.7 | 0.00 | 0.00 | 0.00 | 36 | 1004.7 |
| 20260906183900 | 27 | 175 | 6.4 | 17.7 | 0.00 | 0.00 | 0.00 | 35 | 1004.8 |
| 20260906183652 | 27 | 218 | 8.0 | 17.7 | 0.00 | 0.00 | 0.00 | 36 | 1004.8 |
| 20260906183127 | 27 | 136 | 6.4 | 16.1 | 0.00 | 0.00 | 0.00 | 36 | 1004.9 |
| 20260906182923 | 27 | 136 | 6.4 | 16.1 | 0.00 | 0.00 | 0.00 | 36 | 1005.0 |
| 20260906182715 | 27 | 126 | 4.8 | 16.1 | 0.00 | 0.00 | 0.00 | 37 | 1005.0 |
| 20260906181841 | 27 | 113 | 6.4 | 14.5 | 0.00 | 0.00 | 0.00 | 37 | 1005.2 |
| 20260906181638 | 27 | 111 | 6.4 | 16.1 | 0.00 | 0.00 | 0.00 | 38 | 1005.2 |
| 20260906181436 | 27 | 113 | 6.4 | 16.1 | 0.00 | 0.00 | 0.00 | 39 | 1005.3 |
| 20260906181234 | 27 | 29 | 6.4 | 16.1 | 0.00 | 0.00 | 0.00 | 37 | 1005.3 |
| 20260906181028 | 26 | 130 | 6.4 | 16.1 | 0.00 | 0.00 | 0.00 | 38 | 1005.2 |
| 20260906180824 | 26 | 108 | 6.4 | 16.1 | 0.00 | 0.00 | 0.00 | 37 | 1005.4 |
| 20260906180617 | 26 | 137 | 6.4 | 16.1 | 0.00 | 0.00 | 0.00 | 38 | 1005.4 |
| 20260906180417 | 26 | 115 | 6.4 | 16.1 | 0.00 | 0.00 | 0.00 | 39 | 1005.4 |
| 20260906180208 | 26 | 108 | 6.4 | 16.1 | 0.00 | 0.00 | 0.00 | 37 | 1005.5 |
| 20260906180006 | 26 | 92 | 6.4 | 16.1 | 0.00 | 0.00 | 0.00 | 40 | 1005.5 |
| 20260906175805 | 26 | 47 | 6.4 | 16.1 | 0.00 | 0.00 | 0.00 | 38 | 1005.5 |
| 20260906175244 | 26 | 71 | 4.8 | 14.5 | 0.00 | 0.00 | 0.00 | 37 | 1005.6 |
| 20260906175044 | 26 | 57 | 4.8 | 14.5 | 0.00 | 0.00 | 0.00 | 37 | 1005.7 |
| 20260906174833 | 26 | 138 | 4.8 | 14.5 | 0.00 | 0.00 | 0.00 | 38 | 1005.6 |
| 20260906174312 | 26 | 66 | 6.4 | 14.5 | 0.00 | 0.00 | 0.00 | 37 | 1005.7 |
| 20260906173431 | 26 | 93 | 4.8 | 14.5 | 0.00 | 0.00 | 0.00 | 37 | 1005.8 |
| 20260906173225 | 26 | 112 | 4.8 | 14.5 | 0.00 | 0.00 | 0.00 | 37 | 1005.8 |
| 20260906173021 | 26 | 112 | 3.2 | 14.5 | 0.00 | 0.00 | 0.00 | 37 | 1005.8 |
| 20260906172816 | 26 | 111 | 3.2 | 14.5 | 0.00 | 0.00 | 0.00 | 37 | 1005.8 |
| 20260906172614 | 26 | 166 | 4.8 | 14.5 | 0.00 | 0.00 | 0.00 | 38 | 1005.8 |
| 20260906172410 | 26 | 170 | 4.8 | 14.5 | 0.00 | 0.00 | 0.00 | 38 | 1005.8 |
| 20260906172201 | 26 | 27 | 4.8 | 14.5 | 0.00 | 0.00 | 0.00 | 37 | 1005.8 |
| 20260906171956 | 26 | 27 | 4.8 | 14.5 | 0.00 | 0.00 | 0.00 | 37 | 1005.8 |
| 20260906171755 | 26 | 48 | 4.8 | 14.5 | 0.00 | 0.00 | 0.00 | 38 | 1005.9 |
| 20260906171554 | 26 | 45 | 3.2 | 14.5 | 0.00 | 0.00 | 0.00 | 38 | 1005.9 |
| 20260906171355 | 26 | 40 | 3.2 | 14.5 | 0.00 | 0.00 | 0.00 | 39 | 1005.9 |
| 20260906170822 | 26 | 98 | 4.8 | 16.1 | 0.00 | 0.00 | 0.00 | 38 | 1006.0 |
| 20260906170612 | 26 | 173 | 4.8 | 16.1 | 0.00 | 0.00 | 0.00 | 39 | 1006.0 |
| 20260906170047 | 26 | 44 | 8.0 | 16.1 | 0.00 | 0.00 | 0.00 | 38 | 1006.1 |
| 20260906165839 | 26 | 40 | 8.0 | 16.1 | 0.00 | 0.00 | 0.00 | 38 | 1006.1 |
| 20260906165634 | 26 | 32 | 6.4 | 16.1 | 0.00 | 0.00 | 0.00 | 39 | 1006.0 |
| 20260906165435 | 26 | 142 | 6.4 | 16.1 | 0.00 | 0.00 | 0.00 | 38 | 1006.1 |
| 20260906165227 | 26 | 94 | 6.4 | 16.1 | 0.00 | 0.00 | 0.00 | 40 | 1006.1 |
| 20260906165023 | 25 | 83 | 6.4 | 14.5 | 0.00 | 0.00 | 0.00 | 38 | 1006.1 |
| 20260906164814 | 25 | 66 | 4.8 | 14.5 | 0.00 | 0.00 | 0.00 | 38 | 1006.1 |
| 20260906164609 | 25 | 139 | 4.8 | 14.5 | 0.00 | 0.00 | 0.00 | 38 | 1006.1 |
| 20260906164407 | 25 | 92 | 4.8 | 14.5 | 0.00 | 0.00 | 0.00 | 38 | 1006.1 |
| 20260906163842 | 25 | 31 | 4.8 | 14.5 | 0.00 | 0.00 | 0.00 | 39 | 1006.1 |
| 20260906163632 | 25 | 30 | 6.4 | 14.5 | 0.00 | 0.00 | 0.00 | 40 | 1006.2 |
| 20260906163111 | 25 | 25 | 4.8 | 14.5 | 0.00 | 0.00 | 0.00 | 40 | 1006.1 |
| 20260906162905 | 25 | 41 | 4.8 | 14.5 | 0.00 | 0.00 | 0.00 | 40 | 1006.1 |
| 20260906162707 | 25 | 38 | 4.8 | 12.9 | 0.00 | 0.00 | 0.00 | 41 | 1006.1 |
| 20260906162139 | 25 | 90 | 4.8 | 12.9 | 0.00 | 0.00 | 0.00 | 41 | 1006.0 |
| 20260906161933 | 25 | 55 | 4.8 | 12.9 | 0.00 | 0.00 | 0.00 | 41 | 1006.2 |
| 20260906161734 | 25 | 51 | 4.8 | 12.9 | 0.00 | 0.00 | 0.00 | 41 | 1006.1 |
| 20260906161525 | 24 | 49 | 6.4 | 12.9 | 0.00 | 0.00 | 0.00 | 42 | 1006.1 |
| 20260906161316 | 24 | 19 | 4.8 | 12.9 | 0.00 | 0.00 | 0.00 | 42 | 1006.2 |
| 20260906160744 | 24 | 64 | 4.8 | 12.9 | 0.00 | 0.00 | 0.00 | 41 | 1006.2 |
| 20260906160541 | 24 | 59 | 4.8 | 12.9 | 0.00 | 0.00 | 0.00 | 43 | 1006.2 |
| 20260906160331 | 24 | 37 | 4.8 | 12.9 | 0.00 | 0.00 | 0.00 | 42 | 1006.2 |
| 20260906155446 | 23 | 54 | 6.4 | 14.5 | 0.00 | 0.00 | 0.00 | 42 | 1006.2 |
| 20260906155243 | 23 | 96 | 6.4 | 14.5 | 0.00 | 0.00 | 0.00 | 42 | 1006.1 |
| 20260906155035 | 23 | 39 | 6.4 | 14.5 | 0.00 | 0.00 | 0.00 | 43 | 1006.1 |
| 20260906154505 | 23 | 149 | 4.8 | 14.5 | 0.00 | 0.00 | 0.00 | 43 | 1006.0 |
| 20260906154256 | 23 | 150 | 6.4 | 14.5 | 0.00 | 0.00 | 0.00 | 42 | 1006.0 |
| 20260906154048 | 23 | 114 | 6.4 | 14.5 | 0.00 | 0.00 | 0.00 | 42 | 1006.0 |
| 20260906153523 | 23 | 23 | 4.8 | 12.9 | 0.00 | 0.00 | 0.00 | 40 | 1006.0 |
| 20260906153316 | 23 | 34 | 4.8 | 11.3 | 0.00 | 0.00 | 0.00 | 42 | 1006.0 |
| 20260906153109 | 23 | 24 | 4.8 | 11.3 | 0.00 | 0.00 | 0.00 | 42 | 1006.1 |
| 20260906152909 | 22 | 59 | 4.8 | 12.9 | 0.00 | 0.00 | 0.00 | 44 | 1005.9 |
| 20260906152707 | 22 | 51 | 4.8 | 12.9 | 0.00 | 0.00 | 0.00 | 46 | 1006.0 |
| 20260906152503 | 22 | 9 | 4.8 | 12.9 | 0.00 | 0.00 | 0.00 | 44 | 1006.0 |
| 20260906152255 | 22 | 22 | 6.4 | 12.9 | 0.00 | 0.00 | 0.00 | 45 | 1006.0 |
| 20260906152045 | 22 | 36 | 4.8 | 12.9 | 0.00 | 0.00 | 0.00 | 44 | 1006.1 |
| 20260906151841 | 22 | 5 | 6.4 | 12.9 | 0.00 | 0.00 | 0.00 | 45 | 1006.1 |
| 20260906151638 | 22 | 5 | 6.4 | 12.9 | 0.00 | 0.00 | 0.00 | 45 | 1006.1 |
| 20260906151439 | 22 | 13 | 6.4 | 12.9 | 0.00 | 0.00 | 0.00 | 45 | 1006.1 |
| 20260906151229 | 21 | 44 | 6.4 | 12.9 | 0.00 | 0.00 | 0.00 | 45 | 1006.2 |
| 20260906151029 | 21 | 40 | 6.4 | 11.3 | 0.00 | 0.00 | 0.00 | 45 | 1006.2 |
| 20260906150826 | 21 | 66 | 4.8 | 11.3 | 0.00 | 0.00 | 0.00 | 46 | 1006.1 |
| 20260906150616 | 21 | 65 | 4.8 | 11.3 | 0.00 | 0.00 | 0.00 | 46 | 1006.1 |
| 20260906150054 | 21 | 5 | 3.2 | 11.3 | 0.00 | 0.00 | 0.00 | 48 | 1006.1 |
| 20260906145846 | 20 | 337 | 1.6 | 11.3 | 0.00 | 0.00 | 0.00 | 50 | 1006.1 |
| 20260906145643 | 20 | 336 | 1.6 | 11.3 | 0.00 | 0.00 | 0.00 | 50 | 1006.1 |
| 20260906145437 | 20 | 336 | 3.2 | 11.3 | 0.00 | 0.00 | 0.00 | 52 | 1006.2 |
| 20260906145231 | 20 | 336 | 3.2 | 11.3 | 0.00 | 0.00 | 0.00 | 52 | 1006.2 |
| 20260906145028 | 20 | 291 | 4.8 | 11.3 | 0.00 | 0.00 | 0.00 | 52 | 1006.2 |
| 20260906144500 | 20 | 292 | 4.8 | 11.3 | 0.00 | 0.00 | 0.00 | 52 | 1006.1 |
| 20260906144253 | 20 | 289 | 4.8 | 9.7 | 0.00 | 0.00 | 0.00 | 53 | 1006.2 |
| 20260906144046 | 20 | 290 | 4.8 | 9.7 | 0.00 | 0.00 | 0.00 | 53 | 1006.2 |
| 20260906143840 | 20 | 282 | 3.2 | 9.7 | 0.00 | 0.00 | 0.00 | 53 | 1006.2 |
| 20260906143633 | 20 | 282 | 3.2 | 9.7 | 0.00 | 0.00 | 0.00 | 53 | 1006.2 |
| 20260906143427 | 19 | 282 | 3.2 | 9.7 | 0.00 | 0.00 | 0.00 | 55 | 1006.2 |
| 20260906143218 | 19 | 298 | 4.8 | 9.7 | 0.00 | 0.00 | 0.00 | 56 | 1006.1 |
| 20260906143019 | 19 | 299 | 3.2 | 9.7 | 0.00 | 0.00 | 0.00 | 55 | 1006.2 |
| 20260906142817 | 19 | 0 | 4.8 | 9.7 | 0.00 | 0.00 | 0.00 | 54 | 1006.1 |
| 20260906142259 | 18 | 288 | 4.8 | 8.0 | 0.00 | 0.00 | 0.00 | 57 | 1006.1 |
| 20260906142054 | 18 | 288 | 4.8 | 9.7 | 0.00 | 0.00 | 0.00 | 56 | 1006.1 |
| 20260906141854 | 18 | 281 | 4.8 | 9.7 | 0.00 | 0.00 | 0.00 | 57 | 1006.0 |
| 20260906141651 | 18 | 281 | 4.8 | 9.7 | 0.00 | 0.00 | 0.00 | 58 | 1006.1 |
| 20260906141445 | 18 | 279 | 4.8 | 9.7 | 0.00 | 0.00 | 0.00 | 60 | 1006.0 |
| 20260906141246 | 17 | 277 | 4.8 | 9.7 | 0.00 | 0.00 | 0.00 | 60 | 1006.1 |
| 20260906141040 | 17 | 298 | 3.2 | 9.7 | 0.00 | 0.00 | 0.00 | 60 | 1006.1 |
| 20260906140833 | 17 | 317 | 3.2 | 9.7 | 0.00 | 0.00 | 0.00 | 61 | 1006.0 |
| 20260906140302 | 17 | 316 | 1.6 | 9.7 | 0.00 | 0.00 | 0.00 | 62 | 1006.2 |
| 20260906140100 | 16 | 313 | 0.0 | 6.4 | 0.00 | 0.00 | 0.00 | 64 | 1006.2 |
| 20260906135541 | 16 | 313 | 0.0 | 0.0 | 0.00 | 0.00 | 0.00 | 65 | 1006.2 |
| 20260906135339 | 16 | 313 | 0.0 | 0.0 | 0.00 | 0.00 | 0.00 | 65 | 1006.3 |
| 20260906135130 | 16 | 313 | 0.0 | 0.0 | 0.00 | 0.00 | 0.00 | 64 | 1006.3 |
| 20260906134919 | 16 | 313 | 1.6 | 1.6 | 0.00 | 0.00 | 0.00 | 64 | 1006.2 |
| 20260906134718 | 16 | 313 | 1.6 | 1.6 | 0.00 | 0.00 | 0.00 | 64 | 1006.2 |
| 20260906134510 | 16 | 313 | 1.6 | 0.0 | 0.00 | 0.00 | 0.00 | 64 | 1006.2 |
| 20260906133944 | 15 | 313 | 1.6 | 8.0 | 0.00 | 0.00 | 0.00 | 65 | 1006.2 |
| 20260906133742 | 15 | 313 | 1.6 | 6.4 | 0.00 | 0.00 | 0.00 | 65 | 1006.1 |
| 20260906133532 | 15 | 313 | 1.6 | 6.4 | 0.00 | 0.00 | 0.00 | 65 | 1006.2 |
| 20260906133330 | 15 | 313 | 1.6 | 6.4 | 0.00 | 0.00 | 0.00 | 65 | 1006.2 |
| 20260906133125 | 15 | 313 | 1.6 | 6.4 | 0.00 | 0.00 | 0.00 | 65 | 1006.2 |
| 20260906132925 | 15 | 313 | 1.6 | 6.4 | 0.00 | 0.00 | 0.00 | 65 | 1006.2 |
| 20260906132721 | 15 | 313 | 1.6 | 6.4 | 0.00 | 0.00 | 0.00 | 65 | 1006.1 |
| 20260906132511 | 15 | 313 | 1.6 | 6.4 | 0.00 | 0.00 | 0.00 | 65 | 1006.1 |
| 20260906132306 | 15 | 313 | 1.6 | 6.4 | 0.00 | 0.00 | 0.00 | 65 | 1006.1 |
| 20260906132056 | 15 | 314 | 0.0 | 6.4 | 0.00 | 0.00 | 0.00 | 65 | 1006.1 |
| 20260906131851 | 15 | 314 | 0.0 | 6.4 | 0.00 | 0.00 | 0.00 | 65 | 1006.1 |
| 20260906131646 | 15 | 314 | 0.0 | 6.4 | 0.00 | 0.00 | 0.00 | 65 | 1006.1 |
| 20260906131441 | 15 | 314 | 1.6 | 6.4 | 0.00 | 0.00 | 0.00 | 65 | 1006.0 |
| 20260906131241 | 15 | 314 | 1.6 | 6.4 | 0.00 | 0.00 | 0.00 | 65 | 1006.0 |
| 20260906131032 | 15 | 313 | 1.6 | 6.4 | 0.00 | 0.00 | 0.00 | 65 | 1006.0 |
| 20260906130829 | 15 | 299 | 1.6 | 6.4 | 0.00 | 0.00 | 0.00 | 65 | 1006.0 |
| 20260906130307 | 15 | 299 | 0.0 | 6.4 | 0.00 | 0.00 | 0.00 | 65 | 1006.0 |
| 20260906130057 | 15 | 299 | 0.0 | 6.4 | 0.00 | 0.00 | 0.00 | 65 | 1006.0 |
| 20260906125847 | 15 | 299 | 0.0 | 6.4 | 0.00 | 0.00 | 0.00 | 65 | 1006.1 |
| 20260906125323 | 15 | 296 | 1.6 | 6.4 | 0.00 | 0.00 | 0.00 | 65 | 1006.0 |
| 20260906125117 | 15 | 296 | 0.0 | 6.4 | 0.00 | 0.00 | 0.00 | 65 | 1006.0 |
| 20260906124912 | 15 | 296 | 0.0 | 6.4 | 0.00 | 0.00 | 0.00 | 65 | 1006.0 |
| 20260906124708 | 15 | 296 | 0.0 | 6.4 | 0.00 | 0.00 | 0.00 | 65 | 1006.0 |
| 20260906124510 | 15 | 296 | 0.0 | 6.4 | 0.00 | 0.00 | 0.00 | 65 | 1006.1 |
| 20260906124305 | 15 | 296 | 0.0 | 6.4 | 0.00 | 0.00 | 0.00 | 65 | 1006.1 |
| 20260906124104 | 15 | 296 | 0.0 | 6.4 | 0.00 | 0.00 | 0.00 | 65 | 1006.1 |
| 20260906123857 | 15 | 296 | 0.0 | 6.4 | 0.00 | 0.00 | 0.00 | 65 | 1006.1 |
| 20260906123653 | 14 | 296 | 0.0 | 6.4 | 0.00 | 0.00 | 0.00 | 65 | 1006.1 |
| 20260906123446 | 14 | 294 | 0.0 | 4.8 | 0.00 | 0.00 | 0.00 | 65 | 1006.1 |
| 20260906123237 | 14 | 293 | 0.0 | 0.0 | 0.00 | 0.00 | 0.00 | 65 | 1006.1 |
| 20260906123027 | 14 | 293 | 1.6 | 0.0 | 0.00 | 0.00 | 0.00 | 66 | 1006.2 |
| 20260906122818 | 14 | 293 | 3.2 | 8.0 | 0.00 | 0.00 | 0.00 | 66 | 1006.1 |
| 20260906122608 | 14 | 290 | 3.2 | 8.0 | 0.00 | 0.00 | 0.00 | 66 | 1006.2 |
| 20260906122401 | 14 | 290 | 3.2 | 8.0 | 0.00 | 0.00 | 0.00 | 67 | 1006.1 |
| 20260906122202 | 14 | 290 | 1.6 | 8.0 | 0.00 | 0.00 | 0.00 | 68 | 1006.1 |
| 20260906121630 | 13 | 290 | 1.6 | 8.0 | 0.00 | 0.00 | 0.00 | 69 | 1006.0 |
| 20260906121427 | 13 | 290 | 1.6 | 8.0 | 0.00 | 0.00 | 0.00 | 70 | 1006.1 |
| 20260906121225 | 13 | 290 | 1.6 | 8.0 | 0.00 | 0.00 | 0.00 | 71 | 1006.0 |
| 20260906120328 | 12 | 290 | 0.0 | 4.8 | 0.00 | 0.00 | 0.00 | 74 | 1006.1 |
| 20260906120125 | 12 | 290 | 0.0 | 1.6 | 0.00 | 0.00 | 0.00 | 76 | 1006.1 |
| 20260906115916 | 12 | 290 | 0.0 | 0.0 | 0.00 | 0.00 | 0.00 | 75 | 1006.1 |
| 20260906115709 | 12 | 290 | 0.0 | 0.0 | 0.00 | 0.00 | 0.00 | 76 | 1006.2 |
| 20260906115509 | 12 | 290 | 0.0 | 0.0 | 0.00 | 0.00 | 0.00 | 76 | 1006.1 |
| 20260906115309 | 12 | 290 | 0.0 | 4.8 | 0.00 | 0.00 | 0.00 | 76 | 1006.1 |
| 20260906114423 | 11 | 290 | 0.0 | 1.6 | 0.00 | 0.00 | 0.00 | 79 | 1006.0 |
| 20260906114217 | 11 | 290 | 0.0 | 4.8 | 0.00 | 0.00 | 0.00 | 79 | 1006.0 |
| 20260906114012 | 11 | 290 | 0.0 | 4.8 | 0.00 | 0.00 | 0.00 | 79 | 1006.0 |
| 20260906112810 | 11 | 265 | 0.0 | 0.0 | 0.00 | 0.00 | 0.00 | 80 | 1005.9 |
| 20260906112600 | 11 | 265 | 0.0 | 0.0 | 0.00 | 0.00 | 0.00 | 80 | 1005.8 |
| 20260906112035 | 11 | 265 | 0.0 | 1.6 | 0.00 | 0.00 | 0.00 | 80 | 1005.8 |
| 20260906111827 | 11 | 265 | 0.0 | 1.6 | 0.00 | 0.00 | 0.00 | 81 | 1005.8 |
| 20260906111624 | 11 | 265 | 0.0 | 1.6 | 0.00 | 0.00 | 0.00 | 81 | 1005.7 |
| 20260906111417 | 11 | 265 | 0.0 | 1.6 | 0.00 | 0.00 | 0.00 | 81 | 1005.6 |
| 20260906111209 | 11 | 265 | 0.0 | 0.0 | 0.00 | 0.00 | 0.00 | 81 | 1005.6 |
| 20260906110958 | 11 | 265 | 0.0 | 0.0 | 0.00 | 0.00 | 0.00 | 81 | 1005.7 |
| 20260906110757 | 11 | 265 | 0.0 | 4.8 | 0.00 | 0.00 | 0.00 | 80 | 1005.7 |
| 20260906110555 | 11 | 265 | 0.0 | 4.8 | 0.00 | 0.00 | 0.00 | 80 | 1005.7 |
| 20260906110025 | 11 | 265 | 0.0 | 3.2 | 0.00 | 0.00 | 0.00 | 80 | 1005.6 |
| 20260906105816 | 11 | 265 | 0.0 | 0.0 | 0.00 | 0.00 | 0.00 | 81 | 1005.6 |
| 20260906105616 | 11 | 265 | 0.0 | 0.0 | 0.00 | 0.00 | 0.00 | 81 | 1005.6 |
| 20260906105407 | 11 | 265 | 0.0 | 0.0 | 0.00 | 0.00 | 0.00 | 81 | 1005.5 |
| 20260906105204 | 11 | 265 | 0.0 | 0.0 | 0.00 | 0.00 | 0.00 | 81 | 1005.5 |
| 20260906104650 | 11 | 265 | 0.0 | 1.6 | 0.00 | 0.00 | 0.00 | 80 | 1005.5 |
| 20260906104127 | 11 | 265 | 0.0 | 0.0 | 0.00 | 0.00 | 0.00 | 80 | 1005.6 |
| 20260906103921 | 11 | 265 | 0.0 | 0.0 | 0.00 | 0.00 | 0.00 | 80 | 1005.6 |
| 20260906103719 | 11 | 265 | 0.0 | 1.6 | 0.00 | 0.00 | 0.00 | 80 | 1005.6 |
| 20260906103518 | 11 | 265 | 0.0 | 1.6 | 0.00 | 0.00 | 0.00 | 80 | 1005.7 |
| 20260906103311 | 11 | 265 | 0.0 | 1.6 | 0.00 | 0.00 | 0.00 | 80 | 1005.7 |
| 20260906103106 | 11 | 265 | 0.0 | 1.6 | 0.00 | 0.00 | 0.00 | 80 | 1005.6 |
| 20260906102902 | 11 | 265 | 0.0 | 1.6 | 0.00 | 0.00 | 0.00 | 80 | 1005.6 |
| 20260906102336 | 11 | 265 | 0.0 | 0.0 | 0.00 | 0.00 | 0.00 | 80 | 1005.7 |
| 20260906102129 | 11 | 265 | 0.0 | 1.6 | 0.00 | 0.00 | 0.00 | 80 | 1005.7 |
| 20260906101926 | 11 | 265 | 0.0 | 1.6 | 0.00 | 0.00 | 0.00 | 80 | 1005.7 |
| 20260906101357 | 12 | 265 | 0.0 | 1.6 | 0.00 | 0.00 | 0.00 | 79 | 1005.6 |
| 20260906101147 | 12 | 265 | 0.0 | 1.6 | 0.00 | 0.00 | 0.00 | 79 | 1005.7 |
| 20260906100936 | 12 | 265 | 0.0 | 0.0 | 0.00 | 0.00 | 0.00 | 80 | 1005.7 |
| 20260906100737 | 12 | 265 | 0.0 | 0.0 | 0.00 | 0.00 | 0.00 | 79 | 1005.7 |
| 20260906100528 | 12 | 265 | 0.0 | 0.0 | 0.00 | 0.00 | 0.00 | 79 | 1005.7 |
| 20260906100321 | 12 | 265 | 0.0 | 0.0 | 0.00 | 0.00 | 0.00 | 79 | 1005.6 |
| 20260906100112 | 12 | 265 | 0.0 | 0.0 | 0.00 | 0.00 | 0.00 | 79 | 1005.7 |
| 20260906095909 | 12 | 265 | 0.0 | 0.0 | 0.00 | 0.00 | 0.00 | 79 | 1005.7 |
| 20260906095344 | 12 | 265 | 0.0 | 4.8 | 0.00 | 0.00 | 0.00 | 80 | 1005.8 |
| 20260906095141 | 12 | 265 | 0.0 | 4.8 | 0.00 | 0.00 | 0.00 | 80 | 1005.8 |
| 20260906094937 | 12 | 265 | 0.0 | 4.8 | 0.00 | 0.00 | 0.00 | 80 | 1005.9 |
| 20260906094736 | 12 | 265 | 1.6 | 4.8 | 0.00 | 0.00 | 0.00 | 80 | 1005.8 |
| 20260906094530 | 12 | 265 | 1.6 | 4.8 | 0.00 | 0.00 | 0.00 | 80 | 1005.9 |
| 20260906094321 | 12 | 265 | 1.6 | 4.8 | 0.00 | 0.00 | 0.00 | 79 | 1005.8 |
| 20260906094111 | 12 | 265 | 1.6 | 3.2 | 0.00 | 0.00 | 0.00 | 79 | 1005.8 |
| 20260906093906 | 13 | 265 | 0.0 | 1.6 | 0.00 | 0.00 | 0.00 | 79 | 1005.7 |
| 20260906093659 | 13 | 265 | 0.0 | 1.6 | 0.00 | 0.00 | 0.00 | 78 | 1005.6 |
| 20260906093456 | 13 | 265 | 0.0 | 1.6 | 0.00 | 0.00 | 0.00 | 78 | 1005.7 |
| 20260906093248 | 13 | 265 | 0.0 | 1.6 | 0.00 | 0.00 | 0.00 | 78 | 1005.7 |
| 20260906093038 | 13 | 265 | 0.0 | 0.0 | 0.00 | 0.00 | 0.00 | 77 | 1005.7 |
| 20260906092832 | 13 | 265 | 0.0 | 0.0 | 0.00 | 0.00 | 0.00 | 78 | 1005.7 |
| 20260906092306 | 13 | 265 | 0.0 | 1.6 | 0.00 | 0.00 | 0.00 | 78 | 1005.7 |
| 20260906092056 | 13 | 265 | 0.0 | 1.6 | 0.00 | 0.00 | 0.00 | 78 | 1005.7 |
| 20260906091855 | 14 | 265 | 0.0 | 1.6 | 0.00 | 0.00 | 0.00 | 78 | 1005.7 |
| 20260906091644 | 14 | 265 | 0.0 | 0.0 | 0.00 | 0.00 | 0.00 | 77 | 1005.6 |
| 20260906090756 | 14 | 265 | 0.0 | 4.8 | 0.00 | 0.00 | 0.00 | 79 | 1005.4 |
| 20260906090548 | 14 | 265 | 1.6 | 4.8 | 0.00 | 0.00 | 0.00 | 79 | 1005.3 |
| 20260906090024 | 14 | 265 | 0.0 | 4.8 | 0.00 | 0.00 | 0.00 | 80 | 1005.3 |
| 20260906085817 | 15 | 265 | 0.0 | 4.8 | 0.00 | 0.00 | 0.00 | 80 | 1005.3 |
| 20260906085614 | 15 | 265 | 0.0 | 4.8 | 0.00 | 0.00 | 0.00 | 81 | 1005.3 |
| 20260906085411 | 15 | 265 | 0.0 | 0.0 | 0.00 | 0.00 | 0.00 | 81 | 1005.3 |
| 20260906085201 | 15 | 265 | 0.0 | 0.0 | 0.00 | 0.00 | 0.00 | 81 | 1005.3 |
| 20260906084639 | 15 | 265 | 0.0 | 0.0 | 0.00 | 0.00 | 0.00 | 81 | 1005.3 |
| 20260906084429 | 15 | 265 | 0.0 | 0.0 | 0.00 | 0.00 | 0.00 | 82 | 1005.3 |
| 20260906084227 | 15 | 265 | 0.0 | 0.0 | 0.00 | 0.00 | 0.00 | 82 | 1005.3 |
| 20260906084027 | 15 | 265 | 0.0 | 0.0 | 0.00 | 0.00 | 0.00 | 82 | 1005.3 |
| 20260906083821 | 15 | 265 | 0.0 | 0.0 | 0.00 | 0.00 | 0.00 | 82 | 1005.4 |
| 20260906083615 | 15 | 265 | 0.0 | 4.8 | 0.00 | 0.00 | 0.00 | 81 | 1005.4 |
| 20260906083408 | 15 | 265 | 1.6 | 4.8 | 0.00 | 0.00 | 0.00 | 81 | 1005.4 |
| 20260906083158 | 15 | 265 | 0.0 | 3.2 | 0.00 | 0.00 | 0.00 | 81 | 1005.5 |
| 20260906082308 | 15 | 265 | 0.0 | 0.0 | 0.00 | 0.00 | 0.00 | 80 | 1005.4 |
| 20260906082105 | 15 | 265 | 0.0 | 0.0 | 0.00 | 0.00 | 0.00 | 80 | 1005.4 |
| 20260906081858 | 15 | 265 | 0.0 | 0.0 | 0.00 | 0.00 | 0.00 | 80 | 1005.4 |
| 20260906081648 | 15 | 265 | 0.0 | 0.0 | 0.00 | 0.00 | 0.00 | 80 | 1005.3 |
| 20260906081445 | 15 | 265 | 0.0 | 0.0 | 0.00 | 0.00 | 0.00 | 80 | 1005.4 |
| 20260906081244 | 15 | 265 | 0.0 | 0.0 | 0.00 | 0.00 | 0.00 | 80 | 1005.5 |
| 20260906081037 | 15 | 265 | 0.0 | 0.0 | 0.00 | 0.00 | 0.00 | 80 | 1005.4 |
| 20260906080829 | 15 | 265 | 0.0 | 0.0 | 0.00 | 0.00 | 0.00 | 80 | 1005.5 |
| 20260906080630 | 15 | 265 | 0.0 | 0.0 | 0.00 | 0.00 | 0.00 | 80 | 1005.5 |
| 20260906080110 | 15 | 265 | 0.0 | 0.0 | 0.00 | 0.00 | 0.00 | 80 | 1005.4 |
| 20260906075545 | 15 | 265 | 0.0 | 4.8 | 0.00 | 0.00 | 0.00 | 80 | 1005.5 |
| 20260906075338 | 15 | 265 | 0.0 | 4.8 | 0.00 | 0.00 | 0.00 | 80 | 1005.4 |
| 20260906075132 | 15 | 265 | 0.0 | 4.8 | 0.00 | 0.00 | 0.00 | 80 | 1005.5 |
| 20260906074931 | 15 | 265 | 0.0 | 4.8 | 0.00 | 0.00 | 0.00 | 80 | 1005.4 |
| 20260906074727 | 15 | 265 | 0.0 | 4.8 | 0.00 | 0.00 | 0.00 | 80 | 1005.4 |
| 20260906074522 | 15 | 265 | 1.6 | 4.8 | 0.00 | 0.00 | 0.00 | 80 | 1005.4 |
| 20260906074317 | 15 | 265 | 1.6 | 4.8 | 0.00 | 0.00 | 0.00 | 80 | 1005.4 |
| 20260906074113 | 15 | 265 | 1.6 | 4.8 | 0.00 | 0.00 | 0.00 | 80 | 1005.4 |
| 20260906073912 | 15 | 265 | 1.6 | 4.8 | 0.00 | 0.00 | 0.00 | 80 | 1005.4 |
| 20260906073703 | 15 | 265 | 1.6 | 4.8 | 0.00 | 0.00 | 0.00 | 79 | 1005.5 |
| 20260906073142 | 15 | 265 | 0.0 | 1.6 | 0.00 | 0.00 | 0.00 | 78 | 1005.6 |
| 20260906072941 | 15 | 265 | 0.0 | 1.6 | 0.00 | 0.00 | 0.00 | 77 | 1005.6 |
| 20260906072733 | 15 | 265 | 0.0 | 0.0 | 0.00 | 0.00 | 0.00 | 77 | 1005.6 |
| 20260906072527 | 15 | 265 | 0.0 | 0.0 | 0.00 | 0.00 | 0.00 | 77 | 1005.7 |
| 20260906071951 | 15 | 265 | 0.0 | 0.0 | 0.00 | 0.00 | 0.00 | 76 | 1005.7 |
| 20260906071751 | 15 | 265 | 0.0 | 1.6 | 0.00 | 0.00 | 0.00 | 77 | 1005.6 |
| 20260906071219 | 15 | 265 | 0.0 | 0.0 | 0.00 | 0.00 | 0.00 | 76 | 1005.6 |
| 20260906071011 | 15 | 265 | 0.0 | 0.0 | 0.00 | 0.00 | 0.00 | 76 | 1005.6 |
| 20260906070810 | 15 | 265 | 0.0 | 0.0 | 0.00 | 0.00 | 0.00 | 77 | 1005.6 |
| 20260906070608 | 15 | 265 | 0.0 | 0.0 | 0.00 | 0.00 | 0.00 | 77 | 1005.6 |
| 20260906070401 | 15 | 265 | 0.0 | 0.0 | 0.00 | 0.00 | 0.00 | 77 | 1005.6 |
| 20260906065828 | 15 | 265 | 0.0 | 0.0 | 0.00 | 0.00 | 0.00 | 77 | 1005.7 |
| 20260906065617 | 15 | 265 | 0.0 | 0.0 | 0.00 | 0.00 | 0.00 | 77 | 1005.7 |
| 20260906065414 | 15 | 265 | 0.0 | 0.0 | 0.00 | 0.00 | 0.00 | 78 | 1005.7 |
| 20260906065206 | 15 | 265 | 0.0 | 0.0 | 0.00 | 0.00 | 0.00 | 78 | 1005.7 |
| 20260906065005 | 15 | 265 | 0.0 | 6.4 | 0.00 | 0.00 | 0.00 | 78 | 1005.8 |
| 20260906064445 | 15 | 265 | 1.6 | 6.4 | 0.00 | 0.00 | 0.00 | 78 | 1005.9 |
| 20260906064235 | 15 | 265 | 1.6 | 6.4 | 0.00 | 0.00 | 0.00 | 79 | 1005.8 |
| 20260906064031 | 15 | 265 | 0.0 | 6.4 | 0.00 | 0.00 | 0.00 | 79 | 1005.9 |
| 20260906063826 | 15 | 265 | 0.0 | 6.4 | 0.00 | 0.00 | 0.00 | 79 | 1005.7 |
| 20260906063625 | 15 | 265 | 0.0 | 1.6 | 0.00 | 0.00 | 0.00 | 79 | 1005.7 |
| 20260906063055 | 15 | 265 | 0.0 | 0.0 | 0.00 | 0.00 | 0.00 | 80 | 1005.6 |
| 20260906062847 | 15 | 265 | 1.6 | 6.4 | 0.00 | 0.00 | 0.00 | 80 | 1005.6 |
| 20260906062641 | 15 | 265 | 1.6 | 9.7 | 0.00 | 0.00 | 0.00 | 80 | 1005.7 |
| 20260906062433 | 15 | 265 | 1.6 | 9.7 | 0.00 | 0.00 | 0.00 | 80 | 1005.7 |
| 20260906062228 | 15 | 265 | 1.6 | 9.7 | 0.00 | 0.00 | 0.00 | 80 | 1005.7 |
| 20260906062022 | 15 | 290 | 1.6 | 9.7 | 0.00 | 0.00 | 0.00 | 81 | 1005.8 |
| 20260906061812 | 15 | 290 | 3.2 | 9.7 | 0.00 | 0.00 | 0.00 | 82 | 1005.8 |
| 20260906061609 | 15 | 292 | 3.2 | 9.7 | 0.00 | 0.00 | 0.00 | 82 | 1005.8 |
| 20260906061400 | 14 | 292 | 4.8 | 9.7 | 0.00 | 0.00 | 0.00 | 82 | 1005.6 |
| 20260906061200 | 14 | 292 | 3.2 | 9.7 | 0.00 | 0.00 | 0.00 | 82 | 1005.6 |
| 20260906060955 | 14 | 292 | 3.2 | 9.7 | 0.00 | 0.00 | 0.00 | 82 | 1005.5 |
| 20260906060754 | 14 | 285 | 0.0 | 9.7 | 0.00 | 0.00 | 0.00 | 81 | 1005.4 |
| 20260906060234 | 14 | 180 | 0.0 | 0.0 | 0.00 | 0.00 | 0.00 | 80 | 1005.3 |
| 20260906055353 | 14 | 180 | 0.0 | 0.0 | 0.00 | 0.00 | 0.00 | 79 | 1005.1 |
| 20260906055145 | 14 | 180 | 0.0 | 1.6 | 0.00 | 0.00 | 0.00 | 79 | 1005.1 |
| 20260906054937 | 14 | 180 | 0.0 | 1.6 | 0.00 | 0.00 | 0.00 | 78 | 1005.1 |
| 20260906054730 | 15 | 180 | 0.0 | 1.6 | 0.00 | 0.00 | 0.00 | 77 | 1005.1 |
| 20260906054527 | 15 | 180 | 0.0 | 0.0 | 0.00 | 0.00 | 0.00 | 78 | 1005.1 |
| 20260906054318 | 15 | 180 | 0.0 | 0.0 | 0.00 | 0.00 | 0.00 | 77 | 1005.1 |
| 20260906053438 | 15 | 180 | 0.0 | 0.0 | 0.00 | 0.00 | 0.00 | 76 | 1005.0 |
| 20260906053233 | 15 | 180 | 0.0 | 0.0 | 0.00 | 0.00 | 0.00 | 76 | 1005.1 |
| 20260906052348 | 15 | 180 | 1.6 | 4.8 | 0.00 | 0.00 | 0.00 | 77 | 1005.0 |
| 20260906051816 | 15 | 180 | 0.0 | 3.2 | 0.00 | 0.00 | 0.00 | 76 | 1005.0 |
| 20260906051606 | 16 | 180 | 0.0 | 1.6 | 0.00 | 0.00 | 0.00 | 75 | 1005.1 |
| 20260906051357 | 16 | 180 | 0.0 | 1.6 | 0.00 | 0.00 | 0.00 | 75 | 1005.1 |
| 20260906051147 | 16 | 180 | 0.0 | 0.0 | 0.00 | 0.00 | 0.00 | 75 | 1005.0 |
| 20260906050937 | 16 | 180 | 0.0 | 0.0 | 0.00 | 0.00 | 0.00 | 75 | 1005.0 |
| 20260906050738 | 16 | 180 | 0.0 | 1.6 | 0.00 | 0.00 | 0.00 | 75 | 1005.0 |
| 20260906050538 | 16 | 180 | 0.0 | 1.6 | 0.00 | 0.00 | 0.00 | 75 | 1005.1 |
| 20260906050336 | 16 | 180 | 0.0 | 1.6 | 0.00 | 0.00 | 0.00 | 75 | 1005.1 |
| 20260906045817 | 16 | 180 | 1.6 | 3.2 | 0.00 | 0.00 | 0.00 | 75 | 1005.2 |
| 20260906045610 | 16 | 180 | 0.0 | 3.2 | 0.00 | 0.00 | 0.00 | 75 | 1005.2 |
| 20260906045406 | 16 | 180 | 0.0 | 3.2 | 0.00 | 0.00 | 0.00 | 75 | 1005.2 |
| 20260906045206 | 16 | 180 | 0.0 | 3.2 | 0.00 | 0.00 | 0.00 | 75 | 1005.3 |
| 20260906044641 | 17 | 180 | 0.0 | 1.6 | 0.00 | 0.00 | 0.00 | 74 | 1005.2 |
| 20260906043426 | 17 | 180 | 0.0 | 6.4 | 0.00 | 0.00 | 0.00 | 73 | 1005.3 |
| 20260906043226 | 17 | 180 | 0.0 | 6.4 | 0.00 | 0.00 | 0.00 | 73 | 1005.2 |
| 20260906043018 | 17 | 180 | 0.0 | 6.4 | 0.00 | 0.00 | 0.00 | 73 | 1005.2 |
| 20260906042819 | 17 | 180 | 0.0 | 6.4 | 0.00 | 0.00 | 0.00 | 73 | 1005.3 |
| 20260906042614 | 17 | 180 | 1.6 | 6.4 | 0.00 | 0.00 | 0.00 | 73 | 1005.4 |
| 20260906042403 | 17 | 180 | 1.6 | 6.4 | 0.00 | 0.00 | 0.00 | 73 | 1005.3 |
| 20260906042201 | 17 | 180 | 1.6 | 6.4 | 0.00 | 0.00 | 0.00 | 73 | 1005.4 |
| 20260906041953 | 17 | 180 | 1.6 | 6.4 | 0.00 | 0.00 | 0.00 | 73 | 1005.3 |
| 20260906041745 | 17 | 180 | 1.6 | 6.4 | 0.00 | 0.00 | 0.00 | 72 | 1005.4 |
| 20260906041537 | 17 | 173 | 0.0 | 4.8 | 0.00 | 0.00 | 0.00 | 72 | 1005.3 |
| 20260906041336 | 17 | 173 | 0.0 | 4.8 | 0.00 | 0.00 | 0.00 | 72 | 1005.3 |
| 20260906041129 | 18 | 173 | 0.0 | 1.6 | 0.00 | 0.00 | 0.00 | 72 | 1005.3 |
| 20260906040926 | 18 | 173 | 0.0 | 1.6 | 0.00 | 0.00 | 0.00 | 72 | 1005.3 |
| 20260906040716 | 18 | 173 | 0.0 | 1.6 | 0.00 | 0.00 | 0.00 | 71 | 1005.3 |
| 20260906040514 | 18 | 173 | 0.0 | 0.0 | 0.00 | 0.00 | 0.00 | 71 | 1005.3 |
| 20260906035632 | 18 | 173 | 0.0 | 0.0 | 0.00 | 0.00 | 0.00 | 71 | 1005.3 |
| 20260906035429 | 18 | 173 | 0.0 | 0.0 | 0.00 | 0.00 | 0.00 | 70 | 1005.4 |
| 20260906035220 | 18 | 173 | 0.0 | 0.0 | 0.00 | 0.00 | 0.00 | 70 | 1005.4 |
| 20260906035012 | 18 | 173 | 0.0 | 0.0 | 0.00 | 0.00 | 0.00 | 70 | 1005.3 |
| 20260906034811 | 18 | 173 | 0.0 | 0.0 | 0.00 | 0.00 | 0.00 | 70 | 1005.4 |
| 20260906034601 | 18 | 173 | 0.0 | 1.6 | 0.00 | 0.00 | 0.00 | 70 | 1005.4 |
| 20260906034352 | 18 | 173 | 0.0 | 11.3 | 0.00 | 0.00 | 0.00 | 71 | 1005.4 |
| 20260906034152 | 18 | 173 | 0.0 | 11.3 | 0.00 | 0.00 | 0.00 | 70 | 1005.3 |
| 20260906033944 | 18 | 173 | 0.0 | 4.8 | 0.00 | 0.00 | 0.00 | 70 | 1005.4 |
| 20260906033741 | 18 | 173 | 0.0 | 4.8 | 0.00 | 0.00 | 0.00 | 70 | 1005.4 |
| 20260906033538 | 18 | 173 | 0.0 | 4.8 | 0.00 | 0.00 | 0.00 | 70 | 1005.4 |
| 20260906033334 | 18 | 173 | 1.6 | 4.8 | 0.00 | 0.00 | 0.00 | 70 | 1005.4 |
| 20260906033133 | 18 | 173 | 1.6 | 4.8 | 0.00 | 0.00 | 0.00 | 70 | 1005.4 |
| 20260906032934 | 18 | 173 | 1.6 | 0.0 | 0.00 | 0.00 | 0.00 | 69 | 1005.3 |
| 20260906032735 | 19 | 173 | 1.6 | 11.3 | 0.00 | 0.00 | 0.00 | 69 | 1005.4 |
| 20260906032212 | 19 | 128 | 0.0 | 1.6 | 0.00 | 0.00 | 0.00 | 69 | 1005.3 |
| 20260906032007 | 19 | 128 | 0.0 | 1.6 | 0.00 | 0.00 | 0.00 | 68 | 1005.2 |
| 20260906031808 | 19 | 128 | 0.0 | 1.6 | 0.00 | 0.00 | 0.00 | 68 | 1005.3 |
| 20260906031558 | 19 | 128 | 0.0 | 1.6 | 0.00 | 0.00 | 0.00 | 68 | 1005.3 |
| 20260906031359 | 19 | 128 | 0.0 | 1.6 | 0.00 | 0.00 | 0.00 | 68 | 1005.3 |
| 20260906031158 | 19 | 128 | 0.0 | 0.0 | 0.00 | 0.00 | 0.00 | 68 | 1005.3 |
| 20260906030949 | 19 | 128 | 0.0 | 3.2 | 0.00 | 0.00 | 0.00 | 68 | 1005.3 |
| 20260906030738 | 19 | 128 | 0.0 | 1.6 | 0.00 | 0.00 | 0.00 | 68 | 1005.4 |
| 20260906030535 | 19 | 128 | 0.0 | 0.0 | 0.00 | 0.00 | 0.00 | 67 | 1005.3 |
| 20260906030331 | 19 | 128 | 0.0 | 0.0 | 0.00 | 0.00 | 0.00 | 67 | 1005.3 |
| 20260906025810 | 20 | 128 | 0.0 | 6.4 | 0.00 | 0.00 | 0.00 | 67 | 1005.1 |
| 20260906025609 | 20 | 128 | 0.0 | 6.4 | 0.00 | 0.00 | 0.00 | 67 | 1005.1 |
| 20260906025406 | 20 | 128 | 0.0 | 1.6 | 0.00 | 0.00 | 0.00 | 67 | 1005.0 |
| 20260906025207 | 20 | 128 | 0.0 | 1.6 | 0.00 | 0.00 | 0.00 | 67 | 1005.0 |
| 20260906025007 | 20 | 128 | 0.0 | 6.4 | 0.00 | 0.00 | 0.00 | 67 | 1004.9 |
| 20260906024804 | 20 | 128 | 0.0 | 8.0 | 0.00 | 0.00 | 0.00 | 66 | 1004.9 |
| 20260906024603 | 20 | 128 | 0.0 | 8.0 | 0.00 | 0.00 | 0.00 | 66 | 1005.0 |
| 20260906024353 | 20 | 128 | 0.0 | 8.0 | 0.00 | 0.00 | 0.00 | 66 | 1005.0 |
| 20260906023830 | 20 | 126 | 0.0 | 11.3 | 0.00 | 0.00 | 0.00 | 66 | 1005.0 |
| 20260906023630 | 20 | 130 | 0.0 | 11.3 | 0.00 | 0.00 | 0.00 | 66 | 1005.0 |
| 20260906023428 | 19 | 130 | 0.0 | 11.3 | 0.00 | 0.00 | 0.00 | 66 | 1005.0 |
| 20260906022854 | 19 | 126 | 1.6 | 11.3 | 0.00 | 0.00 | 0.00 | 65 | 1005.0 |
| 20260906022649 | 19 | 128 | 3.2 | 14.5 | 0.00 | 0.00 | 0.00 | 65 | 1005.0 |
| 20260906022450 | 19 | 128 | 3.2 | 14.5 | 0.00 | 0.00 | 0.00 | 65 | 1005.0 |
| 20260906022242 | 19 | 128 | 3.2 | 14.5 | 0.00 | 0.00 | 0.00 | 65 | 1005.0 |
| 20260906022041 | 19 | 170 | 3.2 | 14.5 | 0.00 | 0.00 | 0.00 | 63 | 1005.0 |
| 20260906021841 | 18 | 170 | 3.2 | 14.5 | 0.00 | 0.00 | 0.00 | 63 | 1004.9 |
| 20260906021635 | 18 | 171 | 3.2 | 14.5 | 0.00 | 0.00 | 0.00 | 62 | 1004.9 |
| 20260906021432 | 18 | 175 | 4.8 | 14.5 | 0.00 | 0.00 | 0.00 | 62 | 1004.9 |
| 20260906021223 | 18 | 139 | 4.8 | 14.5 | 0.00 | 0.00 | 0.00 | 61 | 1004.9 |
| 20260906021020 | 18 | 139 | 3.2 | 14.5 | 0.00 | 0.00 | 0.00 | 60 | 1004.7 |
| 20260906020449 | 18 | 36 | 0.0 | 8.0 | 0.00 | 0.00 | 0.00 | 50 | 1004.6 |
| 20260906020249 | 18 | 284 | 0.0 | 4.8 | 0.00 | 0.00 | 0.00 | 47 | 1004.5 |
| 20260906020049 | 18 | 291 | 0.0 | 1.6 | 0.00 | 0.00 | 0.00 | 47 | 1004.2 |
| 20260906015843 | 18 | 291 | 0.0 | 1.6 | 0.00 | 0.00 | 0.00 | 46 | 1004.1 |
| 20260906015635 | 19 | 291 | 0.0 | 1.6 | 0.00 | 0.00 | 0.00 | 46 | 1004.1 |
| 20260906015427 | 19 | 291 | 0.0 | 0.0 | 0.00 | 0.00 | 0.00 | 45 | 1004.1 |
| 20260906014537 | 20 | 291 | 0.0 | 1.6 | 0.00 | 0.00 | 0.00 | 43 | 1004.1 |
| 20260906014334 | 20 | 291 | 0.0 | 0.0 | 0.00 | 0.00 | 0.00 | 43 | 1004.0 |
| 20260906014127 | 21 | 291 | 0.0 | 0.0 | 0.00 | 0.00 | 0.00 | 42 | 1004.1 |
| 20260906013926 | 21 | 291 | 0.0 | 0.0 | 0.00 | 0.00 | 0.00 | 41 | 1004.0 |
| 20260906013727 | 21 | 291 | 0.0 | 0.0 | 0.00 | 0.00 | 0.00 | 41 | 1004.1 |
| 20260906013522 | 21 | 291 | 0.0 | 0.0 | 0.00 | 0.00 | 0.00 | 42 | 1004.1 |
| 20260906013314 | 22 | 291 | 0.0 | 0.0 | 0.00 | 0.00 | 0.00 | 40 | 1004.1 |
| 20260906013111 | 22 | 291 | 0.0 | 0.0 | 0.00 | 0.00 | 0.00 | 41 | 1004.0 |
| 20260906012539 | 22 | 291 | 0.0 | 0.0 | 0.00 | 0.00 | 0.00 | 38 | 1004.0 |
| 20260906012332 | 22 | 291 | 0.0 | 0.0 | 0.00 | 0.00 | 0.00 | 37 | 1004.0 |
| 20260906012128 | 23 | 291 | 0.0 | 0.0 | 0.00 | 0.00 | 0.00 | 37 | 1004.0 |
| 20260906011600 | 23 | 291 | 0.0 | 0.0 | 0.00 | 0.00 | 0.00 | 35 | 1004.0 |
| 20260906011353 | 23 | 291 | 0.0 | 0.0 | 0.00 | 0.00 | 0.00 | 35 | 1004.1 |
| 20260906011146 | 24 | 291 | 0.0 | 0.0 | 0.00 | 0.00 | 0.00 | 34 | 1004.1 |
| 20260906010936 | 24 | 291 | 0.0 | 0.0 | 0.00 | 0.00 | 0.00 | 34 | 1004.1 |
| 20260906010727 | 24 | 291 | 0.0 | 0.0 | 0.00 | 0.00 | 0.00 | 34 | 1004.0 |
| 20260906010518 | 24 | 291 | 0.0 | 6.4 | 0.00 | 0.00 | 0.00 | 33 | 1004.1 |
| 20260906010318 | 24 | 291 | 0.0 | 6.4 | 0.00 | 0.00 | 0.00 | 33 | 1004.2 |
| 20260906005450 | 25 | 291 | 1.6 | 9.7 | 0.00 | 0.00 | 0.00 | 32 | 1004.3 |
| 20260906004923 | 25 | 291 | 1.6 | 9.7 | 0.00 | 0.00 | 0.00 | 32 | 1004.4 |
| 20260906004717 | 25 | 290 | 3.2 | 12.9 | 0.00 | 0.00 | 0.00 | 33 | 1004.4 |
| 20260906004513 | 25 | 327 | 3.2 | 12.9 | 0.00 | 0.00 | 0.00 | 32 | 1004.4 |
| 20260906004303 | 25 | 331 | 3.2 | 12.9 | 0.00 | 0.00 | 0.00 | 32 | 1004.4 |
| 20260906003735 | 25 | 275 | 4.8 | 12.9 | 0.00 | 0.00 | 0.00 | 32 | 1004.4 |
| 20260906003534 | 25 | 274 | 4.8 | 12.9 | 0.00 | 0.00 | 0.00 | 32 | 1004.4 |
| 20260906003325 | 25 | 274 | 4.8 | 12.9 | 0.00 | 0.00 | 0.00 | 31 | 1004.5 |
| 20260906003124 | 25 | 274 | 4.8 | 12.9 | 0.00 | 0.00 | 0.00 | 31 | 1004.4 |
| 20260906002913 | 25 | 277 | 3.2 | 12.9 | 0.00 | 0.00 | 0.00 | 31 | 1004.3 |
| 20260906002707 | 26 | 283 | 1.6 | 11.3 | 0.00 | 0.00 | 0.00 | 30 | 1004.3 |
| 20260906002503 | 26 | 42 | 0.0 | 4.8 | 0.00 | 0.00 | 0.00 | 34 | 1004.3 |
| 20260906001946 | 26 | 42 | 0.0 | 1.6 | 0.00 | 0.00 | 0.00 | 30 | 1004.2 |
| 20260906001735 | 26 | 42 | 0.0 | 1.6 | 0.00 | 0.00 | 0.00 | 33 | 1004.2 |
| 20260906001531 | 26 | 42 | 0.0 | 1.6 | 0.00 | 0.00 | 0.00 | 29 | 1004.2 |
| 20260906001332 | 27 | 42 | 0.0 | 0.0 | 0.00 | 0.00 | 0.00 | 31 | 1004.2 |
| 20260906001128 | 27 | 42 | 0.0 | 0.0 | 0.00 | 0.00 | 0.00 | 29 | 1004.2 |
| 20260906000921 | 27 | 42 | 0.0 | 0.0 | 0.00 | 0.00 | 0.00 | 30 | 1004.2 |
| 20260906000717 | 27 | 42 | 0.0 | 0.0 | 0.00 | 0.00 | 0.00 | 28 | 1004.2 |
| 20260906000152 | 27 | 42 | 0.0 | 0.0 | 0.00 | 0.00 | 0.00 | 29 | 1004.1 |
| 20260905235948 | 27 | 42 | 0.0 | 0.0 | 0.00 | 0.00 | 0.00 | 28 | 1004.1 |
| 20260905235425 | 27 | 42 | 0.0 | 1.6 | 0.00 | 0.00 | 0.00 | 28 | 1004.0 |
| 20260905235223 | 27 | 42 | 0.0 | 1.6 | 0.00 | 0.00 | 0.00 | 29 | 1004.0 |
| 20260905235018 | 27 | 42 | 0.0 | 1.6 | 0.00 | 0.00 | 0.00 | 27 | 1004.0 |
| 20260905234814 | 27 | 42 | 0.0 | 1.6 | 0.00 | 0.00 | 0.00 | 29 | 1003.9 |
| 20260905234606 | 27 | 42 | 0.0 | 0.0 | 0.00 | 0.00 | 0.00 | 27 | 1004.0 |
| 20260905234356 | 27 | 42 | 1.6 | 6.4 | 0.00 | 0.00 | 0.00 | 27 | 1003.9 |
| 20260905234152 | 27 | 42 | 1.6 | 6.4 | 0.00 | 0.00 | 0.00 | 27 | 1004.0 |
| 20260905233946 | 27 | 42 | 0.0 | 6.4 | 0.00 | 0.00 | 0.00 | 27 | 1003.9 |
| 20260905233744 | 27 | 42 | 0.0 | 6.4 | 0.00 | 0.00 | 0.00 | 27 | 1003.9 |
| 20260905233543 | 27 | 42 | 1.6 | 6.4 | 0.00 | 0.00 | 0.00 | 28 | 1003.9 |
| 20260905233335 | 27 | 42 | 1.6 | 6.4 | 0.00 | 0.00 | 0.00 | 27 | 1003.9 |
| 20260905233127 | 27 | 42 | 1.6 | 6.4 | 0.00 | 0.00 | 0.00 | 28 | 1003.8 |
| 20260905232921 | 27 | 42 | 1.6 | 6.4 | 0.00 | 0.00 | 0.00 | 28 | 1003.8 |
| 20260905232717 | 27 | 42 | 3.2 | 6.4 | 0.00 | 0.00 | 0.00 | 27 | 1003.8 |
| 20260905232512 | 27 | 42 | 1.6 | 8.0 | 0.00 | 0.00 | 0.00 | 27 | 1003.8 |
| 20260905232313 | 27 | 42 | 1.6 | 8.0 | 0.00 | 0.00 | 0.00 | 28 | 1003.8 |
| 20260905231746 | 27 | 42 | 1.6 | 8.0 | 0.00 | 0.00 | 0.00 | 28 | 1003.7 |
| 20260905231544 | 27 | 42 | 3.2 | 8.0 | 0.00 | 0.00 | 0.00 | 28 | 1003.7 |
| 20260905231022 | 26 | 42 | 1.6 | 8.0 | 0.00 | 0.00 | 0.00 | 29 | 1003.6 |
| 20260905230816 | 26 | 36 | 1.6 | 8.0 | 0.00 | 0.00 | 0.00 | 28 | 1003.7 |
| 20260905225925 | 26 | 35 | 1.6 | 9.7 | 0.00 | 0.00 | 0.00 | 30 | 1003.5 |
| 20260905225719 | 26 | 35 | 3.2 | 9.7 | 0.00 | 0.00 | 0.00 | 29 | 1003.5 |
| 20260905225511 | 26 | 34 | 3.2 | 9.7 | 0.00 | 0.00 | 0.00 | 30 | 1003.5 |
| 20260905225305 | 26 | 34 | 4.8 | 9.7 | 0.00 | 0.00 | 0.00 | 30 | 1003.6 |
| 20260905225102 | 26 | 34 | 4.8 | 9.7 | 0.00 | 0.00 | 0.00 | 28 | 1003.6 |
| 20260905224853 | 26 | 32 | 4.8 | 9.7 | 0.00 | 0.00 | 0.00 | 29 | 1003.6 |
| 20260905224651 | 26 | 31 | 3.2 | 9.7 | 0.00 | 0.00 | 0.00 | 28 | 1003.6 |
| 20260905224444 | 26 | 28 | 1.6 | 8.0 | 0.00 | 0.00 | 0.00 | 29 | 1003.7 |
| 20260905224235 | 26 | 25 | 1.6 | 8.0 | 0.00 | 0.00 | 0.00 | 29 | 1003.8 |
| 20260905224028 | 26 | 44 | 0.0 | 6.4 | 0.00 | 0.00 | 0.00 | 28 | 1003.8 |
| 20260905223819 | 26 | 44 | 0.0 | 6.4 | 0.00 | 0.00 | 0.00 | 28 | 1003.9 |
| 20260905223618 | 27 | 44 | 0.0 | 6.4 | 0.00 | 0.00 | 0.00 | 29 | 1003.9 |
| 20260905223418 | 27 | 44 | 0.0 | 6.4 | 0.00 | 0.00 | 0.00 | 28 | 1004.0 |
| 20260905223213 | 27 | 44 | 1.6 | 8.0 | 0.00 | 0.00 | 0.00 | 28 | 1004.0 |
| 20260905223010 | 27 | 44 | 1.6 | 8.0 | 0.00 | 0.00 | 0.00 | 28 | 1003.9 |
| 20260905222446 | 27 | 44 | 3.2 | 8.0 | 0.00 | 0.00 | 0.00 | 28 | 1003.9 |
| 20260905222238 | 27 | 44 | 1.6 | 11.3 | 0.00 | 0.00 | 0.00 | 28 | 1003.9 |
| 20260905222036 | 27 | 44 | 1.6 | 11.3 | 0.00 | 0.00 | 0.00 | 28 | 1003.8 |
| 20260905221836 | 27 | 44 | 3.2 | 11.3 | 0.00 | 0.00 | 0.00 | 28 | 1003.8 |
| 20260905221631 | 27 | 317 | 3.2 | 11.3 | 0.00 | 0.00 | 0.00 | 28 | 1003.8 |
| 20260905221107 | 26 | 191 | 3.2 | 11.3 | 0.00 | 0.00 | 0.00 | 29 | 1003.9 |
| 20260905220907 | 26 | 191 | 3.2 | 11.3 | 0.00 | 0.00 | 0.00 | 30 | 1003.9 |
| 20260905220659 | 26 | 191 | 1.6 | 11.3 | 0.00 | 0.00 | 0.00 | 29 | 1004.0 |
| 20260905220458 | 26 | 191 | 1.6 | 11.3 | 0.00 | 0.00 | 0.00 | 29 | 1003.9 |
| 20260905220254 | 26 | 238 | 1.6 | 9.7 | 0.00 | 0.00 | 0.00 | 30 | 1003.9 |
| 20260905220047 | 26 | 280 | 1.6 | 11.3 | 0.00 | 0.00 | 0.00 | 29 | 1003.9 |
| 20260905215847 | 26 | 18 | 1.6 | 11.3 | 0.00 | 0.00 | 0.00 | 29 | 1003.8 |
| 20260905215638 | 26 | 18 | 1.6 | 11.3 | 0.00 | 0.00 | 0.00 | 29 | 1003.9 |
| 20260905215436 | 26 | 18 | 1.6 | 11.3 | 0.00 | 0.00 | 0.00 | 29 | 1003.9 |
| 20260905215232 | 26 | 18 | 1.6 | 11.3 | 0.00 | 0.00 | 0.00 | 29 | 1003.9 |
| 20260905215027 | 26 | 160 | 1.6 | 11.3 | 0.00 | 0.00 | 0.00 | 30 | 1003.9 |
| 20260905214821 | 26 | 160 | 3.2 | 11.3 | 0.00 | 0.00 | 0.00 | 31 | 1004.0 |
| 20260905214622 | 26 | 160 | 3.2 | 11.3 | 0.00 | 0.00 | 0.00 | 31 | 1004.1 |
| 20260905214056 | 26 | 168 | 3.2 | 9.7 | 0.00 | 0.00 | 0.00 | 32 | 1004.2 |
| 20260905213853 | 26 | 74 | 3.2 | 9.7 | 0.00 | 0.00 | 0.00 | 33 | 1004.3 |
| 20260905213646 | 26 | 67 | 3.2 | 9.7 | 0.00 | 0.00 | 0.00 | 31 | 1004.3 |